This is the latest recevied weather packets stored in our database for station/object KJ4YLO. If no packets are shown the sender has not sent any weather packets the latest 10 day(s).
| Time | Temp. | Humidity | Pressure | Rain* | Wind** | Luminosity | Snow |
|---|---|---|---|---|---|---|---|
| 1777739282 | 17.22° C | 54% | 1014.5 hPa | 0 mm | - | 382 W/m² | - |
| 1777738979 | 16.67° C | 57% | 1014.8 hPa | 0 mm | - | 374 W/m² | - |
| 1777738675 | 16.11° C | 58% | 1014.5 hPa | 0 mm | - | 413 W/m² | - |
| 1777738372 | 16.11° C | 58% | 1014.5 hPa | 0 mm | - | 252 W/m² | - |
| 1777738070 | 15.56° C | 58% | 1014.8 hPa | 0 mm | - | 200 W/m² | - |
| 1777737769 | 15.56° C | 58% | 1014.8 hPa | 0 mm | - | 195 W/m² | - |
| 1777737467 | 15.56° C | 61% | 1014.5 hPa | 0 mm | - | 175 W/m² | - |
| 1777737165 | 15.56° C | 61% | 1014.5 hPa | 0 mm | - | 136 W/m² | - |
| 1777736859 | 15.56° C | 60% | 1014.8 hPa | 0 mm | - | 165 W/m² | - |
| 1777736247 | 15.56° C | 62% | 1014.8 hPa | 0 mm | - | 130 W/m² | - |
| 1777735943 | 15.56° C | 62% | 1014.8 hPa | 0 mm | - | 115 W/m² | - |
| 1777735641 | 15.56° C | 63% | 1014.5 hPa | 0 mm | - | 97 W/m² | - |
| 1777735338 | 15.56° C | 63% | 1014.8 hPa | 0 mm | - | 95 W/m² | - |
| 1777735036 | 15.56° C | 65% | 1014.5 hPa | 0 mm | - | 101 W/m² | - |
| 1777734733 | 15.56° C | 65% | 1014.5 hPa | 0 mm | - | 101 W/m² | - |
| 1777734430 | 15.56° C | 64% | 1014.5 hPa | 0 mm | - | 93 W/m² | - |
| 1777734126 | 15.56° C | 62% | 1014.5 hPa | 0 mm | - | 94 W/m² | - |
| 1777733823 | 15.56° C | 66% | 1014.5 hPa | 0 mm | - | 137 W/m² | - |
| 1777733520 | 15.56° C | 66% | 1014.5 hPa | 0 mm | - | 140 W/m² | - |
| 1777733216 | 15.56° C | 66% | 1014.5 hPa | 0 mm | - | 134 W/m² | - |
| 1777732913 | 15° C | 66% | 1014.5 hPa | 0 mm | - | 107 W/m² | - |
| 1777732609 | 15° C | 68% | 1014.1 hPa | 0 mm | - | 70 W/m² | - |
| 1777732307 | 15° C | 68% | 1014.5 hPa | 0 mm | - | 70 W/m² | - |
| 1777732003 | 15.56° C | 67% | 1014.5 hPa | 0 mm | - | 75 W/m² | - |
| 1777731700 | 15.56° C | 68% | 1014.5 hPa | 0 mm | - | 75 W/m² | - |
* Rain latest hour (hover to see other rain measurements)
** Current wind speed in m/s (hover to see current wind gust speed)